SCP
0 0 0 0 0 0 0 0 5 5 5 5 4 3 2 1 1 1 1 1 1 1 0 1 1 0 0 0 0 0 0 0 0 0 0 0 0 0 0 0 0 0 0
0 0 0 0 0 0 0 0 2 6 6 4 3 2 1 0 0 0 0 1 2 2 1 1 1 1 1 0 0 0 0 0 0 0 0 0 0 0 0 0 0 0 0
0 0 0 0 0 0 0 0 0 3 5 3 1 0 0 1 1 1 0 1 2 2 2 2 1 1 1 1 0 0 0 0 0 0 0 0 0 0 0 0 0 0 0
-0 0 0 0 -0 0 0 0 0 1 2 0 0 0 0 0 0 1 1 1 2 2 2 2 1 1 1 1 1 0 0 0 0 0 0 0 0 0 0 0 0 0 0
-0 -0 0 0 0 0 0 0 0 0 1 0 0 0 0 0 0 1 2 2 2 2 2 2 1 1 1 1 1 0 0 0 0 0 0 0 0 0 0 0 0 0 0
0 0 -0 0 0 0 0 0 0 0 0 0 0 0 0 0 1 2 2 2 2 2 2 2 1 1 1 1 1 0 0 0 0 0 0 0 0 0 0 0 0 0 0
0 0 0 -0 0 0 0 0 0 0 0 0 0 0 0 0 0 1 3 3 2 2 2 2 1 1 1 1 0 1 0 0 0 0 0 0 0 0 0 0 0 0 0
0 0 0 0 0 0 0 0 0 0 0 0 0 0 0 0 0 1 3 3 2 2 1 1 1 1 1 1 0 0 0 0 0 0 0 0 0 0 0 0 0 0 0
0 0 0 0 0 0 0 0 0 0 0 0 0 0 0 0 1 3 3 2 2 2 1 1 1 1 1 0 0 0 0 0 0 0 0 0 0 0 0 0 0 0 0
0 0 0 0 0 0 0 0 0 0 0 0 0 0 1 1 2 3 2 1 1 2 1 1 1 1 0 0 0 0 0 0 0 0 0 0 0 0 0 0 0 0 0
-0 0 0 0 0 0 0 0 0 0 0 0 0 2 1 2 3 3 1 1 1 1 1 1 1 0 0 0 0 0 0 0 0 0 0 0 0 0 0 0 0 0 0
0 0 0 0 1 1 1 1 0 0 0 1 2 2 2 2 2 2 1 1 1 1 1 1 0 0 0 0 0 0 0 0 0 0 0 0 0 0 0 0 0 0 0
0 0 0 0 0 1 1 1 0 2 2 2 2 3 2 2 1 1 1 1 1 0 0 0 0 0 0 0 0 0 0 0 0 0 0 0 0 0 0 0 0 0 0
0 0 0 0 0 1 1 0 2 2 3 3 3 2 1 1 0 0 0 0 0 0 0 0 0 0 0 0 0 0 0 0 0 0 0 0 0 0 0 0 0 0 0
0 0 0 0 1 1 1 1 2 3 4 4 2 1 1 1 0 0 0 0 0 0 0 0 0 0 0 0 0 0 0 0 0 0 0 0 0 0 0 0 0 0 0
0 0 0 0 0 0 0 1 3 4 3 2 1 1 1 0 0 0 0 0 0 0 0 0 0 0 0 0 0 0 0 0 0 0 0 0 0 0 0 0 0 0 0
-0 0 0 0 0 -0 0 0 1 2 2 1 1 1 1 0 0 0 0 0 0 0 0 0 0 0 0 0 0 0 0 0 0 0 0 0 0 0 0 0 0 0 0
0 0 0 0 0 -0 0 0 0 1 1 1 1 0 0 0 0 0 0 0 0 0 0 0 0 0 0 0 0 0 0 0 0 0 0 0 0 0 0 0 0 0 0
-0 0 0 0 0 -0 -0 0 0 1 1 1 0 0 0 0 0 0 0 0 0 0 0 0 0 0 0 0 0 0 0 0 0 0 0 0 -0 -0 -0 0 0 0 0
-0 0 0 0 -0 -0 -0 0 0 0 1 0 0 0 0 0 0 0 0 0 0 0 0 0 0 0 0 0 0 0 0 0 0 0 0 -0 -0 -0 0 -0 0 0 0
-0 0 0 0 0 -0 -0 0 0 0 0 0 0 0 0 0 0 0 0 0 0 0 0 0 0 0 0 0 0 -0 0 0 0 0 0 0 0 -0 -0 -0 0 0 0
-0 0 -0 0 0 0 -0 0 -0 0 0 0 0 0 0 0 0 0 0 0 0 0 0 0 0 0 0 0 0 0 0 -0 0 0 0 0 0 -0 -0 0 -0 -0 0
-0 0 0 0 0 0 -0 -0 0 0 0 0 0 0 0 0 0 0 0 0 0 0 0 0 0 0 0 0 0 0 -0 -0 0 -0 -0 -0 0 -0 0 -0 -0 0 0
-0 0 -0 0 0 0 0 0 0 -0 0 0 0 0 0 0 0 0 0 0 0 0 0 0 0 0 0 0 0 0 0 -0 -0 -0 -0 0 0 0 -0 0 0 0 0
0 0 0 0 0 0 0 -0 -0 -0 0 0 0 0 0 0 0 0 0 0 0 0 -0 0 -0 -0 0 0 0 0 0 0 0 -0 -0 0 0 0 0 0 0 0 0
0 0 0 0 0 0 -0 -0 0 0 0 0 0 0 0 0 0 -0 0 -0 -0 -0 -0 -0 -0 -0 0 -0 -0 0 -0 -0 -0 0 0 0 0 0 0 0 0 0 0
Wind_Speed_500mb
70 96 76 83 82 76 53 83 93 80 86 73 60 59 63 65 66 68 59 56 57 59 56 56 53 50 51 45 42 43 51 51 39 38 39 41 47 51 51 53 53 41 37
76 78 81 82 87 83 90 59 87 84 84 76 68 63 53 67 67 60 56 62 57 51 51 51 48 48 47 45 45 45 44 44 45 47 49 45 48 52 52 42 33 33 35
70 78 83 81 91 84 89 81 76 86 87 79 72 69 69 70 66 64 63 66 55 50 49 45 44 43 46 45 48 51 43 43 45 46 40 15 20 32 30 23 26 28 31
74 83 82 85 88 100 84 84 71 92 92 81 83 83 74 72 70 62 68 61 51 56 50 44 43 40 45 43 40 42 40 41 45 47 48 44 39 19 12 15 14 20 20
82 84 90 83 89 99 99 83 72 87 104 93 84 77 70 64 60 60 61 55 55 58 52 42 42 41 44 39 37 36 35 35 41 46 46 41 37 39 35 30 18 16 16
81 87 94 88 81 90 104 85 82 74 103 94 87 74 65 61 56 63 55 52 52 56 52 40 42 38 37 39 38 32 30 30 34 42 39 37 36 36 34 29 22 18 18
71 85 91 90 84 75 99 94 82 85 99 91 84 75 64 59 54 57 53 51 52 61 53 43 36 36 39 35 34 30 31 33 30 33 32 33 34 34 26 24 22 15 17
80 76 81 93 101 90 89 93 74 95 94 84 80 73 70 61 55 56 51 54 50 60 49 41 34 34 38 40 32 29 30 29 29 30 32 33 35 31 28 28 23 17 18
86 92 70 80 88 89 92 92 88 92 91 88 81 75 69 64 63 62 49 51 55 55 48 37 38 42 46 37 35 32 32 29 28 29 29 29 28 28 26 23 21 18 16
93 90 83 71 81 78 89 93 90 94 90 82 71 67 64 62 66 63 56 57 53 57 45 37 40 49 42 36 31 28 28 27 25 22 22 23 24 25 25 23 20 20 16
78 76 65 64 57 80 95 89 93 96 88 71 64 64 61 52 55 62 62 57 54 58 44 43 46 48 40 34 28 24 23 25 20 20 20 20 24 26 24 27 23 22 23
66 68 70 56 23 48 56 54 56 52 53 54 53 48 41 44 53 61 58 56 57 54 46 47 48 44 36 25 26 24 24 24 18 16 21 20 20 22 22 23 28 23 22
6 73 74 61 46 25 34 43 40 40 42 46 46 42 45 48 53 54 50 55 59 58 53 49 48 41 34 30 30 28 25 23 19 16 18 20 20 18 18 21 27 25 24
20 72 79 63 31 25 38 41 44 42 47 51 48 47 44 48 54 55 57 58 59 53 50 48 45 38 31 32 29 28 30 24 21 17 19 21 21 21 22 23 25 29 27
49 72 73 53 37 20 23 39 39 59 64 58 52 49 51 50 58 58 55 55 53 50 48 45 36 30 31 24 19 25 25 20 18 18 21 22 21 19 25 27 32 29 31
38 50 69 78 39 33 6 19 41 63 64 58 55 59 63 62 59 55 58 52 52 52 47 40 37 31 31 30 21 20 20 21 21 21 23 23 23 22 25 23 33 24 25
54 62 75 79 75 58 8 20 53 61 59 60 65 69 66 58 49 51 50 53 54 47 43 40 38 36 31 35 25 24 24 25 21 21 23 24 23 21 21 26 20 32 20
70 77 74 83 72 35 31 39 56 62 63 66 70 68 54 53 55 55 51 51 47 44 42 44 36 33 30 34 26 26 26 24 21 23 25 23 22 22 24 29 25 26 29
64 69 68 71 54 47 30 20 41 58 68 71 64 64 54 60 52 51 48 51 49 43 40 38 35 32 33 30 27 29 27 26 24 21 21 19 17 20 25 25 27 34 31
65 64 65 60 44 46 22 41 48 45 64 71 67 59 56 52 55 53 50 47 45 43 41 36 27 27 26 27 26 26 24 23 20 18 17 14 15 24 27 27 26 31 27
68 62 59 56 50 51 38 54 58 32 71 59 58 55 53 55 58 56 46 44 44 41 36 30 27 25 24 23 23 20 17 17 18 20 17 13 23 24 25 20 19 20 22
66 51 57 53 51 55 11 50 65 42 51 57 64 61 56 55 51 49 43 42 41 39 38 35 33 29 23 22 22 18 17 12 15 19 18 19 25 28 27 22 17 17 21
62 52 55 56 43 46 11 59 34 41 65 61 59 59 55 48 43 45 44 43 38 40 41 38 35 28 24 25 24 22 20 16 15 15 17 23 30 31 26 23 21 16 20
56 51 51 47 39 38 7 47 33 39 65 62 61 64 55 53 45 42 37 40 40 36 38 37 32 26 23 25 25 22 20 19 18 15 18 28 36 29 32 28 23 14 11
60 49 48 44 46 33 12 54 44 52 63 59 63 70 60 51 51 43 40 35 29 26 30 33 28 23 20 25 23 19 16 17 19 16 23 37 41 35 37 37 27 18 11
55 49 43 36 39 28 48 40 47 74 73 73 79 68 57 53 48 44 48 38 30 27 21 23 23 20 15 19 24 23 17 14 17 17 32 45 46 41 40 32 26 20 16
Wind_Direction_500mb
294 269 261 260 264 261 269 239 227 218 213 212 214 216 224 232 236 242 253 262 264 274 274 265 264 256 253 255 251 248 249 257 259 255 249 248 254 262 270 279 284 272 270
297 290 277 259 257 261 260 255 228 220 210 214 225 231 249 242 242 250 258 267 271 268 267 264 262 254 253 248 239 235 239 245 252 253 256 260 265 268 276 274 268 270 262
294 297 289 276 258 255 260 254 237 224 218 223 222 228 231 236 244 252 259 268 263 262 263 262 257 253 247 244 247 238 240 245 248 250 247 248 253 273 278 273 274 272 268
298 298 297 287 267 254 258 253 252 234 224 231 221 226 234 237 249 256 268 265 261 258 259 258 253 248 241 244 234 233 239 242 246 248 245 251 254 265 286 296 264 282 273
295 296 294 296 286 271 254 248 256 241 230 226 230 226 231 242 256 264 258 255 254 254 255 253 247 242 242 224 226 234 234 240 245 249 251 252 254 254 263 284 286 277 274
289 283 287 285 286 276 260 254 250 258 227 223 230 232 237 247 256 254 246 246 249 247 247 247 251 242 223 217 222 228 220 239 244 249 247 248 250 254 260 260 278 286 280
316 292 282 283 278 283 262 247 244 237 221 220 229 236 246 251 252 247 242 242 243 241 239 244 237 224 221 219 224 212 225 234 241 243 247 249 251 253 251 255 265 261 276
311 306 291 281 278 276 260 238 229 220 216 221 228 241 247 247 247 242 242 239 240 241 244 239 233 228 203 213 210 215 222 234 244 242 249 252 252 243 249 256 251 238 239
315 311 302 286 273 272 251 231 222 219 219 222 234 240 242 247 245 240 239 239 236 238 233 233 221 203 214 210 213 218 224 237 240 244 249 248 241 244 243 242 233 226 215
310 310 312 290 272 245 239 227 223 214 223 230 233 235 243 248 245 235 234 234 230 229 223 224 215 205 205 210 211 215 231 233 230 230 237 238 236 231 227 227 237 228 229
307 309 314 315 269 231 231 228 226 225 227 220 226 233 235 237 240 232 231 237 225 213 209 199 197 202 202 201 213 223 225 220 217 231 236 236 235 231 229 229 226 227 227
302 309 321 322 252 183 183 190 192 195 198 206 217 224 230 232 222 230 233 218 210 205 195 191 195 192 194 208 227 225 228 214 221 242 231 227 226 230 238 234 231 234 223
277 297 318 311 284 252 216 204 212 214 212 207 206 216 223 221 226 217 209 201 198 197 184 187 188 187 193 214 224 219 223 211 223 234 233 227 220 226 235 236 226 225 215
231 289 307 312 306 258 243 226 220 214 211 199 200 207 211 208 199 195 196 201 200 189 180 185 185 189 206 211 217 223 209 212 226 239 239 228 228 234 236 235 229 221 218
287 305 329 326 332 314 245 216 211 199 194 190 188 194 190 183 188 190 190 179 178 177 176 176 184 196 190 195 188 190 200 221 233 241 232 225 226 241 251 244 235 218 217
311 327 341 359 3 348 302 215 198 185 181 183 187 182 181 177 180 183 169 170 169 172 175 179 185 187 189 187 201 208 221 238 253 249 225 223 222 265 250 226 218 211 214
333 345 347 353 4 0 237 276 201 187 186 186 179 174 171 172 170 172 171 171 175 173 177 182 187 187 199 201 205 207 224 243 254 236 224 226 261 266 234 217 217 208 214
333 340 341 355 16 5 331 282 214 194 185 178 168 164 164 167 164 164 168 169 172 175 178 179 186 189 193 205 215 212 224 238 235 229 224 239 267 257 219 207 210 202 194
330 331 339 350 12 8 342 335 183 189 178 168 165 164 169 166 169 168 165 171 174 179 182 180 185 190 198 205 213 223 226 228 226 228 226 250 258 218 202 192 195 185 185
323 320 324 340 352 14 106 155 206 200 172 167 162 164 170 171 165 166 169 174 175 176 182 186 195 199 212 215 215 224 225 223 214 219 226 244 202 183 184 174 181 180 180
309 312 316 324 338 333 332 197 233 192 172 161 170 165 161 166 168 168 173 178 183 187 189 195 194 201 203 208 215 214 215 207 206 206 214 201 180 175 174 170 194 207 195
307 305 310 312 334 334 315 221 246 171 167 161 158 163 163 159 170 173 174 182 186 191 190 189 189 189 197 195 208 194 180 198 203 207 196 181 180 171 172 172 185 194 200
302 294 300 310 335 331 215 227 210 178 168 164 165 164 150 157 166 175 182 185 192 191 187 188 188 191 192 196 194 185 190 202 185 192 185 179 172 170 175 184 185 199 196
294 292 302 305 318 314 117 211 215 200 175 170 172 165 159 165 170 179 187 186 181 185 190 187 187 193 196 195 195 191 193 191 185 195 191 178 170 175 180 181 175 185 216
284 293 295 295 314 312 223 199 221 198 177 171 169 166 164 166 168 170 170 175 178 185 191 193 190 199 217 201 194 194 193 199 201 210 196 176 176 175 182 167 167 174 180
274 281 282 286 325 265 211 258 236 190 180 171 164 165 167 167 168 170 166 167 182 179 179 182 189 177 172 186 192 183 194 203 207 203 182 181 180 179 177 174 172 176 173
Wind_Speed_850mb
70 96 76 83 82 76 53 83 93 80 86 73 60 59 63 65 66 68 59 56 57 59 56 56 53 50 51 45 42 43 51 51 39 38 39 41 47 51 51 53 53 41 37
76 78 81 82 87 83 90 59 87 84 84 76 68 63 53 67 67 60 56 62 57 51 51 51 48 48 47 45 45 45 44 44 45 47 49 45 48 52 52 42 33 33 35
70 78 83 81 91 84 89 81 76 86 87 79 72 69 69 70 66 64 63 66 55 50 49 45 44 43 46 45 48 51 43 43 45 46 40 15 20 32 30 23 26 28 31
74 83 82 85 88 100 84 84 71 92 92 81 83 83 74 72 70 62 68 61 51 56 50 44 43 40 45 43 40 42 40 41 45 47 48 44 39 19 12 15 14 20 20
82 84 90 83 89 99 99 83 72 87 104 93 84 77 70 64 60 60 61 55 55 58 52 42 42 41 44 39 37 36 35 35 41 46 46 41 37 39 35 30 18 16 16
81 87 94 88 81 90 104 85 82 74 103 94 87 74 65 61 56 63 55 52 52 56 52 40 42 38 37 39 38 32 30 30 34 42 39 37 36 36 34 29 22 18 18
71 85 91 90 84 75 99 94 82 85 99 91 84 75 64 59 54 57 53 51 52 61 53 43 36 36 39 35 34 30 31 33 30 33 32 33 34 34 26 24 22 15 17
80 76 81 93 101 90 89 93 74 95 94 84 80 73 70 61 55 56 51 54 50 60 49 41 34 34 38 40 32 29 30 29 29 30 32 33 35 31 28 28 23 17 18
86 92 70 80 88 89 92 92 88 92 91 88 81 75 69 64 63 62 49 51 55 55 48 37 38 42 46 37 35 32 32 29 28 29 29 29 28 28 26 23 21 18 16
93 90 83 71 81 78 89 93 90 94 90 82 71 67 64 62 66 63 56 57 53 57 45 37 40 49 42 36 31 28 28 27 25 22 22 23 24 25 25 23 20 20 16
78 76 65 64 57 80 95 89 93 96 88 71 64 64 61 52 55 62 62 57 54 58 44 43 46 48 40 34 28 24 23 25 20 20 20 20 24 26 24 27 23 22 23
66 68 70 56 23 48 56 54 56 52 53 54 53 48 41 44 53 61 58 56 57 54 46 47 48 44 36 25 26 24 24 24 18 16 21 20 20 22 22 23 28 23 22
6 73 74 61 46 25 34 43 40 40 42 46 46 42 45 48 53 54 50 55 59 58 53 49 48 41 34 30 30 28 25 23 19 16 18 20 20 18 18 21 27 25 24
20 72 79 63 31 25 38 41 44 42 47 51 48 47 44 48 54 55 57 58 59 53 50 48 45 38 31 32 29 28 30 24 21 17 19 21 21 21 22 23 25 29 27
49 72 73 53 37 20 23 39 39 59 64 58 52 49 51 50 58 58 55 55 53 50 48 45 36 30 31 24 19 25 25 20 18 18 21 22 21 19 25 27 32 29 31
38 50 69 78 39 33 6 19 41 63 64 58 55 59 63 62 59 55 58 52 52 52 47 40 37 31 31 30 21 20 20 21 21 21 23 23 23 22 25 23 33 24 25
54 62 75 79 75 58 8 20 53 61 59 60 65 69 66 58 49 51 50 53 54 47 43 40 38 36 31 35 25 24 24 25 21 21 23 24 23 21 21 26 20 32 20
70 77 74 83 72 35 31 39 56 62 63 66 70 68 54 53 55 55 51 51 47 44 42 44 36 33 30 34 26 26 26 24 21 23 25 23 22 22 24 29 25 26 29
64 69 68 71 54 47 30 20 41 58 68 71 64 64 54 60 52 51 48 51 49 43 40 38 35 32 33 30 27 29 27 26 24 21 21 19 17 20 25 25 27 34 31
65 64 65 60 44 46 22 41 48 45 64 71 67 59 56 52 55 53 50 47 45 43 41 36 27 27 26 27 26 26 24 23 20 18 17 14 15 24 27 27 26 31 27
68 62 59 56 50 51 38 54 58 32 71 59 58 55 53 55 58 56 46 44 44 41 36 30 27 25 24 23 23 20 17 17 18 20 17 13 23 24 25 20 19 20 22
66 51 57 53 51 55 11 50 65 42 51 57 64 61 56 55 51 49 43 42 41 39 38 35 33 29 23 22 22 18 17 12 15 19 18 19 25 28 27 22 17 17 21
62 52 55 56 43 46 11 59 34 41 65 61 59 59 55 48 43 45 44 43 38 40 41 38 35 28 24 25 24 22 20 16 15 15 17 23 30 31 26 23 21 16 20
56 51 51 47 39 38 7 47 33 39 65 62 61 64 55 53 45 42 37 40 40 36 38 37 32 26 23 25 25 22 20 19 18 15 18 28 36 29 32 28 23 14 11
60 49 48 44 46 33 12 54 44 52 63 59 63 70 60 51 51 43 40 35 29 26 30 33 28 23 20 25 23 19 16 17 19 16 23 37 41 35 37 37 27 18 11
55 49 43 36 39 28 48 40 47 74 73 73 79 68 57 53 48 44 48 38 30 27 21 23 23 20 15 19 24 23 17 14 17 17 32 45 46 41 40 32 26 20 16
Wind_Direction_850mb
294 269 261 260 264 261 269 239 227 218 213 212 214 216 224 232 236 242 253 262 264 274 274 265 264 256 253 255 251 248 249 257 259 255 249 248 254 262 270 279 284 272 270
297 290 277 259 257 261 260 255 228 220 210 214 225 231 249 242 242 250 258 267 271 268 267 264 262 254 253 248 239 235 239 245 252 253 256 260 265 268 276 274 268 270 262
294 297 289 276 258 255 260 254 237 224 218 223 222 228 231 236 244 252 259 268 263 262 263 262 257 253 247 244 247 238 240 245 248 250 247 248 253 273 278 273 274 272 268
298 298 297 287 267 254 258 253 252 234 224 231 221 226 234 237 249 256 268 265 261 258 259 258 253 248 241 244 234 233 239 242 246 248 245 251 254 265 286 296 264 282 273
295 296 294 296 286 271 254 248 256 241 230 226 230 226 231 242 256 264 258 255 254 254 255 253 247 242 242 224 226 234 234 240 245 249 251 252 254 254 263 284 286 277 274
289 283 287 285 286 276 260 254 250 258 227 223 230 232 237 247 256 254 246 246 249 247 247 247 251 242 223 217 222 228 220 239 244 249 247 248 250 254 260 260 278 286 280
316 292 282 283 278 283 262 247 244 237 221 220 229 236 246 251 252 247 242 242 243 241 239 244 237 224 221 219 224 212 225 234 241 243 247 249 251 253 251 255 265 261 276
311 306 291 281 278 276 260 238 229 220 216 221 228 241 247 247 247 242 242 239 240 241 244 239 233 228 203 213 210 215 222 234 244 242 249 252 252 243 249 256 251 238 239
315 311 302 286 273 272 251 231 222 219 219 222 234 240 242 247 245 240 239 239 236 238 233 233 221 203 214 210 213 218 224 237 240 244 249 248 241 244 243 242 233 226 215
310 310 312 290 272 245 239 227 223 214 223 230 233 235 243 248 245 235 234 234 230 229 223 224 215 205 205 210 211 215 231 233 230 230 237 238 236 231 227 227 237 228 229
307 309 314 315 269 231 231 228 226 225 227 220 226 233 235 237 240 232 231 237 225 213 209 199 197 202 202 201 213 223 225 220 217 231 236 236 235 231 229 229 226 227 227
302 309 321 322 252 183 183 190 192 195 198 206 217 224 230 232 222 230 233 218 210 205 195 191 195 192 194 208 227 225 228 214 221 242 231 227 226 230 238 234 231 234 223
277 297 318 311 284 252 216 204 212 214 212 207 206 216 223 221 226 217 209 201 198 197 184 187 188 187 193 214 224 219 223 211 223 234 233 227 220 226 235 236 226 225 215
231 289 307 312 306 258 243 226 220 214 211 199 200 207 211 208 199 195 196 201 200 189 180 185 185 189 206 211 217 223 209 212 226 239 239 228 228 234 236 235 229 221 218
287 305 329 326 332 314 245 216 211 199 194 190 188 194 190 183 188 190 190 179 178 177 176 176 184 196 190 195 188 190 200 221 233 241 232 225 226 241 251 244 235 218 217
311 327 341 359 3 348 302 215 198 185 181 183 187 182 181 177 180 183 169 170 169 172 175 179 185 187 189 187 201 208 221 238 253 249 225 223 222 265 250 226 218 211 214
333 345 347 353 4 0 237 276 201 187 186 186 179 174 171 172 170 172 171 171 175 173 177 182 187 187 199 201 205 207 224 243 254 236 224 226 261 266 234 217 217 208 214
333 340 341 355 16 5 331 282 214 194 185 178 168 164 164 167 164 164 168 169 172 175 178 179 186 189 193 205 215 212 224 238 235 229 224 239 267 257 219 207 210 202 194
330 331 339 350 12 8 342 335 183 189 178 168 165 164 169 166 169 168 165 171 174 179 182 180 185 190 198 205 213 223 226 228 226 228 226 250 258 218 202 192 195 185 185
323 320 324 340 352 14 106 155 206 200 172 167 162 164 170 171 165 166 169 174 175 176 182 186 195 199 212 215 215 224 225 223 214 219 226 244 202 183 184 174 181 180 180
309 312 316 324 338 333 332 197 233 192 172 161 170 165 161 166 168 168 173 178 183 187 189 195 194 201 203 208 215 214 215 207 206 206 214 201 180 175 174 170 194 207 195
307 305 310 312 334 334 315 221 246 171 167 161 158 163 163 159 170 173 174 182 186 191 190 189 189 189 197 195 208 194 180 198 203 207 196 181 180 171 172 172 185 194 200
302 294 300 310 335 331 215 227 210 178 168 164 165 164 150 157 166 175 182 185 192 191 187 188 188 191 192 196 194 185 190 202 185 192 185 179 172 170 175 184 185 199 196
294 292 302 305 318 314 117 211 215 200 175 170 172 165 159 165 170 179 187 186 181 185 190 187 187 193 196 195 195 191 193 191 185 195 191 178 170 175 180 181 175 185 216
284 293 295 295 314 312 223 199 221 198 177 171 169 166 164 166 168 170 170 175 178 185 191 193 190 199 217 201 194 194 193 199 201 210 196 176 176 175 182 167 167 174 180
274 281 282 286 325 265 211 258 236 190 180 171 164 165 167 167 168 170 166 167 182 179 179 182 189 177 172 186 192 183 194 203 207 203 182 181 180 179 177 174 172 176 173